Weather History for West Palm Beach, FL

Change the Weather History Date:

Tuesday, April 9, 2013

  Actual Average Record
Temperature  
Mean Temperature 77 °F 73 °F  
Max Temperature 81 °F 81 °F 92 °F (1965)
Min Temperature 73 °F 65 °F 46 °F (1939)
Degree Days  
Heating Degree Days 0 0  
Month to date heating degree days 0 0  
Since 1 July heating degree days 164 229  
Cooling Degree Days 12 8  
Month to date cooling degree days 82 69  
Year to date cooling degree days 553 497  
Growing Degree Days 27 (Base 50)    
Moisture  
Dew Point 64 °F    
Average Humidity 66    
Maximum Humidity 73    
Minimum Humidity 58    
Precipitation  
Precipitation 0.00 in 0.13 in 3.44 in (1984)
Month to date precipitation 1.92 1.22  
Year to date precipitation 6.08 11.76  
Snow  
Snow 0.00 in - - ()
Month to date snowfall 0.0  
Since 1 July snowfall 0.0  
Snow Depth 0.00 in    
Sea Level Pressure  
Sea Level Pressure 30.11 in    
Wind  
Wind Speed 13 mph (East)    
Max Wind Speed 21 mph    
Max Gust Speed 26 mph    
Visibility 10 miles    
Events      
T = Trace of Precipitation, MM = Missing Value Source: NWS Daily Summary

Daily Weather History Graph

Daily Weather History Graph

Search for Another Location

Airport:

Trip Planner

Search our weather history database for the weather conditions in past years. The results will help you decide how hot, cold, wet, or windy it might be!

Date:

Astronomy

Apr. 09, 2013 Rise Set
Actual Time 7:02 AM EDT 7:41 PM EDT
Civil Twilight 6:39 AM EDT 8:05 PM EDT
Nautical Twilight 6:11 AM EDT 8:32 PM EDT
Astronomical Twilight 5:43 AM EDT 9:00 PM EDT
Moon 6:21 AM EDT (4/9) 7:15 PM EDT (4/9)
Length of Visible Light 13h 26m
Length of Day
12h 39m
Waning Crescent, 1% of the Moon is Illuminated
Apr 9
Waning Crescent
Apr 10
New
Apr 18
First Quarter
Apr 25
Full
May 2
Last Quarter

Hourly Weather History & Observations

Time (EDT) Temp. Heat Index Dew Point Humidity Pressure Visibility Wind Dir Wind Speed Gust Speed Precip Events Conditions
12:53 AM 75.0 °F - 62.1 °F 64% 30.12 in 10.0 mi ESE 13.8 mph - 0.00 in   Mostly Cloudy
1:53 AM 73.9 °F - 63.0 °F 68% 30.09 in 10.0 mi ESE 15.0 mph - N/A   Scattered Clouds
2:53 AM 73.0 °F - 64.9 °F 76% 30.08 in 10.0 mi East 9.2 mph - N/A   Scattered Clouds
3:53 AM 73.0 °F - 64.0 °F 73% 30.06 in 10.0 mi ESE 10.4 mph - N/A   Scattered Clouds
4:53 AM 73.0 °F - 64.0 °F 73% 30.06 in 10.0 mi ESE 8.1 mph - N/A   Mostly Cloudy
5:53 AM 73.9 °F - 64.0 °F 71% 30.08 in 10.0 mi SE 8.1 mph - N/A   Mostly Cloudy
6:53 AM 73.0 °F - 64.9 °F 76% 30.09 in 10.0 mi ESE 10.4 mph - N/A   Mostly Cloudy
7:53 AM 75.0 °F - 64.0 °F 69% 30.10 in 10.0 mi ESE 15.0 mph - N/A   Mostly Cloudy
8:53 AM 75.9 °F - 64.0 °F 67% 30.12 in 10.0 mi ESE 12.7 mph - N/A   Mostly Cloudy
9:53 AM 75.9 °F - 63.0 °F 64% 30.14 in 10.0 mi ESE 13.8 mph - N/A   Mostly Cloudy
10:53 AM 80.1 °F 81.7 °F 64.0 °F 58% 30.16 in 10.0 mi ESE 18.4 mph 24.2 mph N/A   Mostly Cloudy
11:53 AM 80.1 °F 82.1 °F 66.0 °F 62% 30.16 in 10.0 mi ESE 18.4 mph - N/A   Mostly Cloudy
12:53 PM 78.1 °F - 64.0 °F 62% 30.15 in 10.0 mi ESE 16.1 mph - N/A   Mostly Cloudy
1:53 PM 78.1 °F - 66.0 °F 66% 30.14 in 10.0 mi East 15.0 mph - N/A   Mostly Cloudy
2:53 PM 78.1 °F - 64.9 °F 64% 30.12 in 10.0 mi East 13.8 mph - N/A   Mostly Cloudy
3:53 PM 79.0 °F - 64.0 °F 60% 30.11 in 10.0 mi East 13.8 mph - N/A   Mostly Cloudy
4:53 PM 77.0 °F - 64.0 °F 64% 30.10 in 10.0 mi East 15.0 mph - N/A   Mostly Cloudy
5:53 PM 77.0 °F - 64.9 °F 66% 30.10 in 10.0 mi East 13.8 mph - N/A   Mostly Cloudy
6:53 PM 75.9 °F - 64.9 °F 69% 30.10 in 10.0 mi ENE 11.5 mph - N/A   Scattered Clouds
7:53 PM 75.0 °F - 64.0 °F 69% 30.11 in 10.0 mi ENE 10.4 mph - N/A   Mostly Cloudy
8:53 PM 75.0 °F - 64.0 °F 69% 30.11 in 10.0 mi East 10.4 mph - N/A   Scattered Clouds
9:53 PM 75.0 °F - 63.0 °F 66% 30.12 in 10.0 mi East 13.8 mph - N/A   Mostly Cloudy
10:53 PM 75.0 °F - 64.0 °F 69% 30.12 in 10.0 mi ENE 11.5 mph - N/A   Mostly Cloudy
11:53 PM 75.0 °F - 64.9 °F 71% 30.11 in 10.0 mi East 11.5 mph - N/A   Mostly Cloudy